TimeMST,TemperatureF,Dew PointF,Humidity,Sea Level PressureIn,VisibilityMPH,Wind Direction,Wind SpeedMPH,Gust SpeedMPH,PrecipitationIn,Events,Conditions,WindDirDegrees,DateUTC
12:53 AM,19.0,10.0,68,29.94,10.0,Variable,6.9,-,N/A,,Clear,0,2012-12-12 07:53:00
1:53 AM,14.0,6.1,71,29.94,10.0,NNE,3.5,-,N/A,,Clear,20,2012-12-12 08:53:00
2:53 AM,12.9,6.1,74,29.94,10.0,Variable,3.5,-,N/A,,Clear,0,2012-12-12 09:53:00
3:53 AM,12.9,7.0,77,29.93,10.0,Variable,3.5,-,N/A,,Clear,0,2012-12-12 10:53:00
4:53 AM,15.1,8.1,74,29.96,10.0,South,8.1,-,N/A,,Clear,190,2012-12-12 11:53:00
5:53 AM,19.0,10.0,68,29.97,10.0,West,5.8,-,N/A,,Clear,280,2012-12-12 12:53:00
6:53 AM,17.1,10.0,74,30.00,10.0,Calm,Calm,-,N/A,,Clear,0,2012-12-12 13:53:00
7:53 AM,21.9,12.0,66,29.99,10.0,Calm,Calm,-,N/A,,Clear,0,2012-12-12 14:53:00
8:53 AM,27.0,15.1,61,30.00,10.0,West,6.9,-,N/A,,Clear,270,2012-12-12 15:53:00
9:53 AM,39.9,19.9,45,29.96,10.0,West,9.2,-,N/A,,Clear,280,2012-12-12 16:53:00
10:53 AM,43.0,21.9,43,29.92,10.0,West,9.2,-,N/A,,Clear,260,2012-12-12 17:53:00
11:53 AM,46.0,21.9,39,29.89,10.0,West,9.2,-,N/A,,Clear,260,2012-12-12 18:53:00
12:53 PM,46.0,23.0,40,29.86,10.0,SW,6.9,-,N/A,,Clear,220,2012-12-12 19:53:00
1:53 PM,50.0,24.1,36,29.86,10.0,SW,4.6,-,N/A,,Clear,230,2012-12-12 20:53:00
2:53 PM,52.0,21.9,31,29.87,10.0,WSW,5.8,-,N/A,,Clear,250,2012-12-12 21:53:00
3:53 PM,50.0,27.0,41,29.88,10.0,SSE,3.5,-,N/A,,Clear,160,2012-12-12 22:53:00
4:53 PM,39.0,28.9,67,29.93,10.0,East,8.1,-,N/A,,Clear,100,2012-12-12 23:53:00
5:53 PM,35.1,27.0,72,29.95,10.0,Calm,Calm,-,N/A,,Clear,0,2012-12-13 00:53:00
6:53 PM,34.0,26.1,73,29.96,10.0,Variable,5.8,-,N/A,,Clear,0,2012-12-13 01:53:00
7:53 PM,35.1,25.0,67,29.95,10.0,North,6.9,-,N/A,,Clear,350,2012-12-13 02:53:00
8:53 PM,32.0,25.0,75,29.95,10.0,NNW,6.9,-,N/A,,Clear,340,2012-12-13 03:53:00
9:53 PM,30.9,24.1,76,29.94,10.0,WSW,3.5,-,N/A,,Clear,240,2012-12-13 04:53:00
10:53 PM,28.0,24.1,85,29.96,10.0,WNW,5.8,-,N/A,,Clear,300,2012-12-13 05:53:00
11:53 PM,30.9,23.0,72,29.93,10.0,NW,4.6,-,N/A,,Clear,320,2012-12-13 06:53:00